星链-35919(STARLINK-35919)

导读 | 豆包AI

STARLINK-35919是美国星链计划的低轨卫星,于2025年12月4日发射升空,是SpaceX打造的卫星互联网星座组网成员之一。这类卫星部署在近地轨道,旨在为全球提供高速低延迟互联网服务,尤其覆盖偏远地区,进一步推进星链星座的全球覆盖进程。

基本信息
目录编号:
66888
目录名称:
STARLINK-35919
国际标识:
2025-283L
轨道中心:
EARTH
卫星名称:
星链-35919
卫星全名:
星链-35919(STARLINK-35919)
卫星状态:
在轨 (已飞行146 天)
发射日期:
2025-12-04 UTC
国别 :
美国 (US)
星等 :
--
轨道信息
数据来源 国际轨道数据
星历时间: 2026-04-29T02:54:48+0800
8小时前
查看轨道信息
半长轴: 6853.354km
偏心率: 0.0001461
轨道倾角: 53.157°
近地点辐角 88.953°
升交点赤经 151.520°
平近点角 271.164°
近地点: 474.215km
远地点: 476.219km
周期: 94.105分钟
每日圈数: 15.301994
详细信息
固有亮度:
5
最大亮度:
2.5
卫星平台:
Starlink V1.0
覆盖范围:
全球
运营商:
太空探索技术公司
运营商所在国:
美国
制造商(研发单位):
太空探索技术公司
制造商所在国:
美国
使用方式:
暂无
卫星简介
Starlink 计划是 SpaceX 推出的全球卫星互联网项目,通过发射低轨道卫星,为全球尤其是偏远地区提供高速、低延迟的互联网服务。自 2019 年起,Starlink 已部署数千颗卫星,旨在缩小全球数字鸿沟,推动互联网普及。该项目还为军事、航空等行业提供通信支持,带来广泛经济效益。
2D轨道图
3D轨道图
轨道高度分析图
轨道倾角分析图
轨道综合分析图
查看轨道综合分析图